Regional Weather Roundup
Issued by NWS Wakefield, VA

Home | Current Version | Previous Version | Text Only | Print | Product List | Glossary On
Versions: 1 2 3 4 5 6 7 8 9 10 11 12 13 14 15 16 17 18 19 20 21 22 23 24 25 26 27 28 29 30 31 32 33 34 35 36 37 38 39 40 41 42 43 44 45 46 47 48 49 50
494
ASUS41 KAKQ 271215
RWRAKQ

REGIONAL WEATHER ROUNDUP
NATIONAL WEATHER SERVICE WAKEFIELD VA
800 AM EDT THU APR 27 2017

Note: "fair" indicates few or no clouds below 12,000 feet with no
significant weather and/or obstructions to visibility. * = Denotes
station may not report precipitation (e.g., rain,snow,etc.),
thunder or fog.

VAZ042-051-052>054-056-271300-
NORTHERN VIRGINIA

CITY           SKY/WX    TMP DP  RH WIND       PRES   REMARKS
WASH NATIONAL  MOSUNNY   61  59  93 NE3       29.85R
DULLES         FOG       59  58  96 E3        29.84R VSB 1/4
FORT BELVOIR   CLOUDY    59  58  97 CALM      29.84
QUANTICO       MOSUNNY   62  61  96 E3        29.84R
FREDERICKSBRG* CLOUDY    57  57 100 CALM      29.83S FOG
STAFFORD*      CLOUDY    56  56 100 CALM      29.87S FOG
WARRENTON      FOG       61  59  91 CALM      29.82F VSB 1/4
CULPEPER*      FOG       61  61 100 CALM      29.84S VSB 1/2
MANASSAS*      FOG       59  59 100 CALM      29.84S VSB 1/2
LEESBURG*      FOG       59  59 100 E6        29.85S VSB 3/4
WINCHESTER     FOG       55  55 100 NE3       29.81S VSB<1/4
FRONT ROYAL*   CLOUDY    55  55 100 CALM      29.81R VSB 1/4
LURAY*         FOG       55  55 100 CALM      29.81R VSB<1/4
$$

VAZ048-049-060>072-079>083-271300-
CENTRAL AND SOUTH CENTRAL VIRGINIA

CITY           SKY/WX    TMP DP  RH WIND       PRES   REMARKS
RICHMOND       MOSUNNY   65  64  97 S9        29.85R
CHESTERFIELD*  FAIR      66  48  52 S6        29.87R
PETERSBURG*    SUNNY     64  62  94 S3        29.87S
HANOVER        SUNNY     65  61  87 VRB7      29.86R
TAPPAHANNOCK*  SUNNY     64  64 100 S6        29.86R
QUINTON*       FAIR      64  64 100 MISG      29.85S
CHARLOTTSVILLE FOG       59  58  96 CALM      29.83R VSB 1/4
GORDONSVILLE*  FOG       56  56 100 CALM      29.82S VSB 1/4
ORANGE*        FOG       57  57 100 CALM      29.83S VSB<1/4
LOUISA*        SUNNY     64  64 100 S5        29.82S
BUMPASS*       FAIR      61  61 100 SE3       29.83S
FARMVILLE*     SUNNY     64  64 100 S5        29.84R
CREWE*         FAIR      65  65 100 S5        29.86R
FORT PICKETT*  FAIR      65  61  87 S13G21    29.86S
CHASE CITY*    FAIR      64  63  94 S6        29.87R
CLARKSVILLE*   FAIR      63  61  94 S6        29.87R
SOUTH HILL*    SUNNY     63  62  97 S6        29.92S
LAWRENCEVILLE* FAIR      65  61  88 S3        29.87S
EMPORIA*         N/A     64  61  88 S5        29.90R
$$

VAZ088>098-271300-
SOUTHEAST VIRGINIA

CITY           SKY/WX    TMP DP  RH WIND       PRES   REMARKS
NORFOLK        PTSUNNY   69  61  75 SW13      29.89R
VIRGINIA BEACH MOSUNNY   67  59  75 SW12      29.89R
NORFOLK NAVAL  MOSUNNY   68  61  78 SW10      29.91R
WEST POINT*    SUNNY     66  65  95 CALM      29.88R
SALUDA*        FAIR      66  64  94 SW9       29.87R
NEWPORT NEWS   SUNNY     68  62  81 SW10      29.89R
LANGLEY AFB    SUNNY     69  61  76 SW10      29.88
FORT EUSTIS    SUNNY     70  61  73 S5        29.86
WILLIAMSBURG*  SUNNY     68  64  88 CALM      29.89R
HR EXEC AP*    FAIR      66  61  82 SW6       29.88R
FRANKLIN*      SUNNY     67  60  78 S9        29.90R
US460-WAKEFLD  SUNNY     67  62  84 VRB7      29.88R
$$

VAZ020-022-025-037-045-271300-
WEST CENTRAL AND SOUTHWEST VIRGINIA

CITY           SKY/WX    TMP DP  RH WIND       PRES   REMARKS
STAUNTON*      SUNNY     58  57  95 CALM      29.84R
WAYNESBORO*    SUNNY     62  60  95 CALM      29.83R
HOT SPRINGS VA CLOUDY    59  54  82 S9        29.90S
LYNCHBURG      SUNNY     61  60  97 S7        29.86R
DANVILLE       MOSUNNY   62  61  96 S3        29.86R
SOUTH BOSTON*  FAIR      64  62  95 S3        29.86R
MARTINSVILLE   CLOUDY    61  59  92 CALM      29.88R
ROANOKE        CLOUDY    60  59  96 CALM      29.86R
BLACKSBURG     CLOUDY    64  56  75 S5        29.89R
DUBLIN*        CLOUDY    63  54  72 S6        29.86R
MARION*        CLOUDY    64  53  68 CALM      29.87R
HILLSVILLE*    CLOUDY    60  56  87 S14G20    29.87R
RICHLANDS*     FAIR      64  51  63 S9G16     29.83R
WISE*          CLOUDY    63  52  67 S13G22    29.84R
ABINGDON*      MOSUNNY   62  56  82 W3        29.85R
$$

MDZ021>025-VAZ099-100-271300-
SOUTHERN MARYLAND AND THE DELMARVA PENINSULA

CITY           SKY/WX    TMP DP  RH WIND       PRES   REMARKS
PATUXENT RIVER MOSUNNY   62  62 100 E3        29.85R
BAY BRIDGE APT SUNNY     61  59  94 SE7       29.86R FOG
LEONARDTOWN    SUNNY     63  61  94 CALM      29.87R
DOVER          CLOUDY    58  58 100 E8        29.88R
GEORGETOWN     CLOUDY    60  58  92 SE3       29.89R FOG
EASTON         MOSUNNY   61  57  88 SE3       29.90R
CAMBRIDGE      PTSUNNY   61  59  94 SE6       29.87R
SALISBURY      CLOUDY    58  58 100 SE5       29.88R FOG
OCEAN CITY     CLOUDY    57  55  93 S5        29.90R
WALLOPS ISLAND FOG       59  59 100 S3        29.90R VSB 1
ACCOMACK*      CLOUDY    63  59  86 S5        29.88R
$$

NCZ012>017-030>032-271300-
NORTH CENTRAL AND EASTERN NORTH CAROLINA

CITY           SKY/WX    TMP DP  RH WIND       PRES   REMARKS
ROANOKE RAPIDS FAIR      64  61  88 S5        29.89S
RALEIGH        MOSUNNY   65  60  84 SW9G16    29.89R
ELIZABETH CITY MOSUNNY   69  63  81 SW10      29.92R
AHOSKIE*         N/A     65  60  86 S3        29.91R
EDENTON*       SUNNY     70  63  78 CALM      29.93R
CURRITUCK*     MOSUNNY   68  63  85 SW8       29.93R
KILL DEVIL HLS CLOUDY    68  62  79 CALM      29.93R
MANTEO         CLOUDY    67  63  84 SW9       29.94R
CAPE HATTERAS  SUNNY     72  66  81 SW7       29.95R HAZE
TARBORO*       NOT AVBL
GOLDSBORO      SUNNY     65  65 100 S6        29.89
WASHINGTON     SUNNY     67  62  84 S5        29.93S
GREENVILLE     SUNNY     68  63  83 SW8       29.93S
NEW BERN       SUNNY     68  65  90 CALM      29.94R
WILMINGTON     MOSUNNY   70  67  90 S6        29.92R
$$

VAZ048-271300-
ELSEWHERE

CITY           SKY/WX    TMP DP  RH WIND       PRES   REMARKS
HARRISBURG PA  CLOUDY    57  57 100 SE3       29.86R FOG
BALTIMORE      CLOUDY    58  58 100 E7        29.86R FOG
ANNAPOLIS      SUNNY     61  59  93 SE6       29.86R
ANDREWS AFB    FOG       57  57 100 E6        29.84S VSB 1/2
PHILADELPHIA   CLOUDY    62  58  86 SE5       29.90R
HENDERSON NC   SUNNY     61  56  86 S5        29.89R
GREENSBORO     CLOUDY    62  60  93 S8        29.87R
ROCKY MOUNT    SUNNY     66  62  87 S6        29.89S
$$

VAZ100-271300-
MARINE

STATION/POSITION TIME  TEMP    WIND        PRES    WAVE   SWELL
                       AIR SEA DIR/SP/G            HT/PER HT/PER
                 (UTC) (F)     (DEG/KT/KT) (MB)    (FT/S) (FT/S)
CAPE MAY NJ      1148   57 55  110/  7/  9 1012.0R
LEWES DE         1148   57 55  150/  8/ 10 1011.8S
15NM E FENWICK I 1150   53 51  110/  6/  8 1012.8R   5/ 9   5/ 9
OCEAN-CITY-INLET 1148   56 54  160/  5/  8 1012.7R
WACHAPREAGUE VA  1148   61 61  200/  5/  5 1011.5R
THOMAS POINT MD  1200   59 57  110/  5/  5   N/A
GOOSES REEF MD   1200   61 53  150/  4/  4 1011.8    1
COVE POINT MD    1148   59     170/  7/  9 1011.6R
SOLOMONS ISLAND  1148   61 59   90/  6/  6   N/A
BISHOPS HEAD MD  1148   62 61  140/  9/ 10 1011.7R
PINEY POINT MD   1142          140/  4/  5   N/A
POTOMAC MD       1200   63 60  150/  2/  4 1010.3    1
CAMBRIDGE MD     1142   63 62                N/A
LEWISETTA VA     1148   65 62  230/  9/ 11 1010.6R
RAPPAHANNOCK LGT 1142          180/ 10/ 11 1012.2R
STINGRAY PT      1150   65     230/ 10/ 12 1011.4R
YORK RVR RNG VA  1148   67     250/  7/  9 1011.2R
YORKTOWN VA      1148   67 63  220/ 12/ 14 1011.3R
JAMESTOWN VA     1200   67 67  200/ 12/ 16   N/A     0
DOMINION TERM VA 1148   67     220/ 11/ 13 1012.1R
KIPTOPEKE VA     1142      61  210/  7/ 10   N/A
CHES BAY BRIDGE  1148   67 62  240/ 15/ 19 1011.8R
CAPE HENRY VA    1148   68     210/ 10/ 13   N/A
WILLOUBY STN VA  1142          210/ 12/ 15 1012.9R
S CRANEY ISL VA  1148   67     210/  8/ 12 1011.9R
CAPE HENRY BUOY  1142      60                N/A     3/ 9   2/11
1ST LANDING BUOY 1200   66 62              1012.2    2/ 5
CAPE CHARLES BUO 1151      56                N/A     3/ 8   2/11
64NM E OF VA BCH 1150   59 55  220/ 10/ 12 1013.7R   5/ 9   5/ 9
DUCK PIER NC     1148   68 59  220/ 11/ 14 1013.1R
44100 DUCK FRF   1105      58                N/A     4/12   2/12
44056 DUCK FRF   1130      61                N/A     4/11   2/11
OREGON INLET NC  1142   69 67  210/ 10/ 12 1013.7R
HATTERAS NC      1148   72 69  230/  5/  8 1013.9R
DIAMOND SHLS NC  1150   76 77  230/ 12/ 14 1014.0R   6/ 9   5/ 9
CAPE LOOKOUT NC  1200   70     180/  3/  3 1013.6R
$$




USA.gov is the U.S. government's official web portal to all federal, state and local government web resources and services.